Regional Weather Roundup
Issued by NWS

Home | Current Version | Previous Version | Text Only | Print | Product List | Glossary On
Versions: 1 2 3 4 5 6 7 8 9 10 11 12 13 14 15 16 17 18 19 20 21 22 23 24 25 26 27 28 29 30 31 32 33 34 35 36 37 38 39 40 41 42 43 44 45 46 47 48 49 50
000
ASUS43 KLSX 170807
RWRMO

WEATHER SUMMARY FOR MISSOURI
NATIONAL WEATHER SERVICE SPRINGFIELD MO
200 AM CST WED DEC 17 2014

NOTE: "FAIR" INDICATES FEW OR NO CLOUDS BELOW 12,000 FEET WITH NO
       SIGNIFICANT WEATHER AND/OR OBSTRUCTIONS TO VISIBILITY.
       CURRENT SKY AND/OR WEATHER CONDITIONS ARE NOT AVAILABLE FOR
       CHILLICOTHE AND FARMINGTON.

MOZ001>031-035>038-043-044-053-054-170900-
...NORTHERN AND WESTERN MISSOURI...

CITY           SKY/WX    TMP DP  RH WIND       PRES   REMARKS
KANSAS CTY INT CLOUDY    23  19  85 N6        30.34S WCI  16
KANSAS C DTWN  CLOUDY    28  20  71 N6        30.34F WCI  22
LEE`S SUMMIT   CLOUDY    26  19  74 N7        30.34S WCI  18
ST JOSEPH      PTCLDY    21  16  81 NW6       30.36R WCI  13
CHILLICOTHE      N/A     24  18  77 NW8       30.36R WCI  15
KIRKSVILLE     CLOUDY    24  20  84 NW6       30.31R WCI  17

$$
MOZ066>068-077>081-088>096-101>105-170900-
...SOUTHWEST MISSOURI...

CITY           SKY/WX    TMP DP  RH WIND       PRES   REMARKS
SPRINGFIELD    MOCLDY    26  23  88 NW3       30.30S
JOPLIN         CLOUDY    28  24  85 N5        30.33S WCI  23

$$
MOZ032>034-039>042-045>050-055>058-069>072-170900-
...CENTRAL MISSOURI...

CITY           SKY/WX    TMP DP  RH WIND       PRES   REMARKS
COLUMBIA       PTCLDY    26  22  84 W7        30.32R WCI  18
JEFFERSON CITY MOCLDY    29  22  75 W6        30.35R WCI  23
ROLLA          CLOUDY    27  21  78 NW9       30.29R WCI  18
SEDALIA        CLEAR     27  22  81 NW5       30.33S WCI  22
WHITEMAN AFB   PTCLDY    25  20  83 NW5       30.33F WCI  19
WARRENSBURG    PTCLDY    27  21  80 CALM      30.35S
OSAGE BEACH    CLOUDY    28  19  69 N5        30.33R WCI  23

$$
MOZ051-052-059>065-170900-
...EAST CENTRAL MISSOURI...

CITY           SKY/WX    TMP DP  RH WIND       PRES   REMARKS
ST LOUIS INTL  CLOUDY    31  22  69 NW12      30.30S WCI  22
SPIRIT OF STL  CLOUDY    30  22  72 NW9       30.31R WCI  22
ST CHARLES     CLOUDY    31  23  72 W13       30.30S WCI  21

$$
MOZ072>076-082>087-097>100-106>115-170900-
...SOUTH CENTRAL AND SOUTHEAST MISSOURI...

CITY           SKY/WX    TMP DP  RH WIND       PRES   REMARKS
CAPE GIRARDEAU CLOUDY    34  27  75 N6        30.31S WCI  29
FARMINGTON     CLOUDY    28  21  74 SW8       30.29S WCI  20
POPLAR BLUFF   CLOUDY    33  24  69 NW6       30.31S WCI  28
WEST PLAINS    PTCLDY    26  22  84 W3        30.30R

$$



USA.gov is the U.S. government's official web portal to all federal, state and local government web resources and services.